AAY432 KMEM-KBHM

Flight info

Callsign AAY432
Flight time 0h 37m
Altitude 23000
Route BBKNG7 KERMI VLKNN
Aircraft A320/M-SDE3FGHIRWY/LB1

Departure

Time 2026-04-17 00:24
Airport Memphis International Airport (KMEM)

Arrival

Time 2026-04-17 01:01
Airport Birmingham-Shuttlesworth International Airport (KBHM)
Time Latitude Longitude Altitude Speed Heading
2026-04-16 23:56 35.04362 -89.98008 314 ft 0 kts 98°
2026-04-17 00:10 35.04364 -89.98030 312 ft 3 kts 98°
2026-04-17 00:11 35.04367 -89.98051 311 ft 2 kts 120°
2026-04-17 00:11 35.04367 -89.98052 311 ft 0 kts 120°
2026-04-17 00:15 35.04366 -89.98051 311 ft 1 kts 133°
2026-04-17 00:15 35.04363 -89.98052 311 ft 1 kts 163°
2026-04-17 00:15 35.04330 -89.98057 312 ft 8 kts 186°
2026-04-17 00:16 35.04268 -89.98050 312 ft 10 kts 151°
2026-04-17 00:16 35.04219 -89.97994 313 ft 9 kts 134°
2026-04-17 00:16 35.04193 -89.97924 314 ft 9 kts 90°
2026-04-17 00:16 35.04188 -89.97860 315 ft 9 kts 116°
2026-04-17 00:17 35.04110 -89.97837 314 ft 14 kts 182°
2026-04-17 00:17 35.04007 -89.97837 313 ft 16 kts 180°
2026-04-17 00:17 35.03898 -89.97861 311 ft 17 kts 228°
2026-04-17 00:17 35.03888 -89.98006 310 ft 19 kts 269°
2026-04-17 00:18 35.03886 -89.98181 308 ft 22 kts 269°
2026-04-17 00:18 35.03884 -89.98373 307 ft 23 kts 269°
2026-04-17 00:18 35.03942 -89.98492 306 ft 17 kts 347°
2026-04-17 00:18 35.04059 -89.98495 300 ft 17 kts 360°
2026-04-17 00:19 35.04185 -89.98498 299 ft 20 kts 358°
2026-04-17 00:19 35.04315 -89.98501 298 ft 18 kts 359°
2026-04-17 00:19 35.04438 -89.98504 299 ft 18 kts 358°
2026-04-17 00:19 35.04557 -89.98507 299 ft 16 kts 359°
2026-04-17 00:20 35.04659 -89.98508 299 ft 13 kts 359°
2026-04-17 00:20 35.04721 -89.98508 299 ft 0 kts 359°
2026-04-17 00:20 35.04756 -89.98509 300 ft 23 kts 359°
2026-04-17 00:21 35.04922 -89.98531 298 ft 21 kts 320°
2026-04-17 00:21 35.04934 -89.98618 298 ft 5 kts 275°
2026-04-17 00:21 35.04934 -89.98625 298 ft 0 kts 274°
2026-04-17 00:22 35.04934 -89.98698 298 ft 15 kts 266°
2026-04-17 00:23 35.04851 -89.98745 298 ft 15 kts 183°
2026-04-17 00:23 35.04721 -89.98739 298 ft 34 kts 178°
2026-04-17 00:23 35.04235 -89.98730 296 ft 103 kts 179°
2026-04-17 00:23 35.03334 -89.98714 332 ft 151 kts 181°
2026-04-17 00:24 35.02317 -89.98722 922 ft 144 kts 181°
2026-04-17 00:24 35.01291 -89.98700 1333 ft 149 kts 183°
2026-04-17 00:24 35.00241 -89.98639 1862 ft 151 kts 182°
2026-04-17 00:24 34.99135 -89.98571 2196 ft 169 kts 179°
2026-04-17 00:25 34.97908 -89.98106 2370 ft 202 kts 153°
2026-04-17 00:25 34.96621 -89.97187 2672 ft 227 kts 153°
2026-04-17 00:25 34.95177 -89.96191 3075 ft 250 kts 153°
2026-04-17 00:25 34.93733 -89.94898 3676 ft 267 kts 131°
2026-04-17 00:26 34.92969 -89.92806 4469 ft 279 kts 99°
2026-04-17 00:26 34.92823 -89.90469 5336 ft 282 kts 95°
2026-04-17 00:26 34.92716 -89.88040 6186 ft 286 kts 95°
2026-04-17 00:26 34.92613 -89.85598 6963 ft 290 kts 94°
2026-04-17 00:27 34.92510 -89.83160 7744 ft 294 kts 94°
2026-04-17 00:27 34.92399 -89.80624 8538 ft 298 kts 94°
2026-04-17 00:27 34.92282 -89.78113 9299 ft 303 kts 94°
2026-04-17 00:27 34.92157 -89.75535 10061 ft 307 kts 94°
2026-04-17 00:28 34.92024 -89.72873 10448 ft 326 kts 94°
2026-04-17 00:28 34.91881 -89.70021 10655 ft 349 kts 94°
2026-04-17 00:28 34.91733 -89.67013 11092 ft 361 kts 94°
2026-04-17 00:28 34.91588 -89.63922 11712 ft 368 kts 92°
2026-04-17 00:29 34.91514 -89.60790 12356 ft 373 kts 90°
2026-04-17 00:29 34.91508 -89.57605 12995 ft 379 kts 89°
2026-04-17 00:29 34.91533 -89.54374 13632 ft 384 kts 89°
2026-04-17 00:29 34.91564 -89.51092 14216 ft 390 kts 89°
2026-04-17 00:30 34.91590 -89.47770 14766 ft 395 kts 89°
2026-04-17 00:30 34.91604 -89.44398 15299 ft 401 kts 89°
2026-04-17 00:30 34.91604 -89.40980 15838 ft 406 kts 89°
2026-04-17 00:30 34.91596 -89.37516 16372 ft 411 kts 89°
2026-04-17 00:31 34.91582 -89.34010 16898 ft 417 kts 89°
2026-04-17 00:31 34.91567 -89.30456 17427 ft 422 kts 89°
2026-04-17 00:31 34.91549 -89.26851 17933 ft 427 kts 89°
2026-04-17 00:31 34.91524 -89.23211 18432 ft 432 kts 91°
2026-04-17 00:32 34.91197 -89.19597 18866 ft 437 kts 102°
2026-04-17 00:32 34.90551 -89.15958 19343 ft 441 kts 103°
2026-04-17 00:32 34.89898 -89.12297 19825 ft 445 kts 103°
2026-04-17 00:32 34.89259 -89.08594 20311 ft 448 kts 103°
2026-04-17 00:33 34.88628 -89.04851 20804 ft 452 kts 103°
2026-04-17 00:33 34.87666 -89.01203 21271 ft 452 kts 117°
2026-04-17 00:33 34.86332 -88.97717 21753 ft 455 kts 118°
2026-04-17 00:33 34.84970 -88.94213 22227 ft 459 kts 118°
2026-04-17 00:34 34.83589 -88.90694 22694 ft 462 kts 119°
2026-04-17 00:34 34.82193 -88.87165 22994 ft 465 kts 119°
2026-04-17 00:34 34.80788 -88.83622 23054 ft 462 kts 119°
2026-04-17 00:34 34.79399 -88.80104 23053 ft 461 kts 119°
2026-04-17 00:35 34.78012 -88.76582 23054 ft 461 kts 119°
2026-04-17 00:35 34.76629 -88.73066 23053 ft 461 kts 119°
2026-04-17 00:35 34.75250 -88.69558 23053 ft 461 kts 119°
2026-04-17 00:35 34.73865 -88.66045 23056 ft 460 kts 119°
2026-04-17 00:36 34.72476 -88.62534 23022 ft 460 kts 119°
2026-04-17 00:36 34.71084 -88.59025 23068 ft 461 kts 119°
2026-04-17 00:36 34.69691 -88.55516 23049 ft 460 kts 119°
2026-04-17 00:36 34.68300 -88.52015 23047 ft 460 kts 119°
2026-04-17 00:37 34.66929 -88.48553 23050 ft 460 kts 119°
2026-04-17 00:37 34.65542 -88.45056 23042 ft 460 kts 119°
2026-04-17 00:37 34.64136 -88.41516 23054 ft 460 kts 120°
2026-04-17 00:37 34.62759 -88.38056 23057 ft 460 kts 120°
2026-04-17 00:38 34.61369 -88.34570 23055 ft 459 kts 120°
2026-04-17 00:38 34.59976 -88.31085 23060 ft 459 kts 120°
2026-04-17 00:38 34.58583 -88.27604 23065 ft 459 kts 120°
2026-04-17 00:38 34.57187 -88.24118 23064 ft 459 kts 120°
2026-04-17 00:39 34.55795 -88.20637 23054 ft 459 kts 120°
2026-04-17 00:39 34.54403 -88.17160 23051 ft 459 kts 120°
2026-04-17 00:39 34.53005 -88.13677 23056 ft 458 kts 120°
2026-04-17 00:39 34.51609 -88.10201 23046 ft 458 kts 120°
2026-04-17 00:40 34.50211 -88.06727 23046 ft 458 kts 120°
2026-04-17 00:40 34.48809 -88.03251 23046 ft 458 kts 120°
2026-04-17 00:40 34.47409 -87.99784 23050 ft 458 kts 120°
2026-04-17 00:40 34.46011 -87.96321 23046 ft 458 kts 120°
2026-04-17 00:41 34.44614 -87.92859 23015 ft 458 kts 120°
2026-04-17 00:41 34.43213 -87.89391 23025 ft 458 kts 120°
2026-04-17 00:41 34.41813 -87.85927 23026 ft 458 kts 120°
2026-04-17 00:41 34.40415 -87.82472 23038 ft 458 kts 120°
2026-04-17 00:42 34.39012 -87.79009 23036 ft 458 kts 120°
2026-04-17 00:42 34.37611 -87.75551 23039 ft 458 kts 120°
2026-04-17 00:42 34.36208 -87.72098 23041 ft 458 kts 120°
2026-04-17 00:42 34.34818 -87.68678 23034 ft 458 kts 121°
2026-04-17 00:43 34.33416 -87.65232 22960 ft 455 kts 121°
2026-04-17 00:43 34.32030 -87.61825 22686 ft 446 kts 121°
2026-04-17 00:43 34.30670 -87.58486 22418 ft 439 kts 121°
2026-04-17 00:43 34.29320 -87.55184 22168 ft 436 kts 121°
2026-04-17 00:44 34.27976 -87.51909 21912 ft 434 kts 121°
2026-04-17 00:44 34.26637 -87.48652 21659 ft 431 kts 121°
2026-04-17 00:44 34.25309 -87.45416 21407 ft 429 kts 121°
2026-04-17 00:44 34.23985 -87.42186 21159 ft 427 kts 120°
2026-04-17 00:45 34.22666 -87.38966 20914 ft 425 kts 120°
2026-04-17 00:45 34.21361 -87.35780 20670 ft 423 kts 120°
2026-04-17 00:45 34.20056 -87.32596 20427 ft 421 kts 120°
2026-04-17 00:45 34.18761 -87.29442 20187 ft 418 kts 120°
2026-04-17 00:46 34.17472 -87.26307 19918 ft 416 kts 121°
2026-04-17 00:46 34.16185 -87.23185 19679 ft 414 kts 121°
2026-04-17 00:46 34.14902 -87.20080 19461 ft 412 kts 121°
2026-04-17 00:46 34.13629 -87.16999 19220 ft 409 kts 120°
2026-04-17 00:47 34.12358 -87.13927 18984 ft 407 kts 120°
2026-04-17 00:47 34.11108 -87.10911 18761 ft 405 kts 120°
2026-04-17 00:47 34.09848 -87.07877 18534 ft 403 kts 120°
2026-04-17 00:47 34.08595 -87.04862 18302 ft 401 kts 120°
2026-04-17 00:48 34.07349 -87.01864 18039 ft 399 kts 120°
2026-04-17 00:48 34.05948 -86.99014 17774 ft 391 kts 132°
2026-04-17 00:48 34.04016 -86.96812 17503 ft 377 kts 153°
2026-04-17 00:48 34.01678 -86.95558 16999 ft 363 kts 172°
2026-04-17 00:49 33.99217 -86.94938 16496 ft 360 kts 175°
2026-04-17 00:49 33.96754 -86.94390 16007 ft 359 kts 176°
2026-04-17 00:49 33.95142 -86.94035 15665 ft 352 kts 176°
2026-04-17 00:49 33.92751 -86.93513 15184 ft 346 kts 176°
2026-04-17 00:50 33.90390 -86.93006 14694 ft 343 kts 176°
2026-04-17 00:50 33.88050 -86.92511 14229 ft 340 kts 176°
2026-04-17 00:50 33.85725 -86.92029 13758 ft 338 kts 176°
2026-04-17 00:50 33.83408 -86.91562 13246 ft 337 kts 176°
2026-04-17 00:51 33.81099 -86.91115 12731 ft 335 kts 176°
2026-04-17 00:51 33.78796 -86.90689 12245 ft 336 kts 176°
2026-04-17 00:51 33.76490 -86.90283 11746 ft 335 kts 176°
2026-04-17 00:51 33.74176 -86.89896 11279 ft 335 kts 176°
2026-04-17 00:52 33.71874 -86.89509 10803 ft 336 kts 172°
2026-04-17 00:52 33.69694 -86.88474 10327 ft 338 kts 148°
2026-04-17 00:52 33.68038 -86.86550 9819 ft 329 kts 124°
2026-04-17 00:52 33.67160 -86.84080 9181 ft 321 kts 99°
2026-04-17 00:53 33.67057 -86.81441 8553 ft 313 kts 87°
2026-04-17 00:53 33.67158 -86.78857 7934 ft 307 kts 86°
2026-04-17 00:53 33.67404 -86.76342 7321 ft 299 kts 72°
2026-04-17 00:53 33.68282 -86.74155 6742 ft 292 kts 58°
2026-04-17 00:54 33.69362 -86.72115 6132 ft 288 kts 56°
2026-04-17 00:54 33.70453 -86.70115 5501 ft 284 kts 56°
2026-04-17 00:54 33.71531 -86.68141 4889 ft 282 kts 56°
2026-04-17 00:54 33.72599 -86.66184 4259 ft 280 kts 56°
2026-04-17 00:55 33.73667 -86.64230 3656 ft 278 kts 56°
2026-04-17 00:55 33.74699 -86.62282 3133 ft 274 kts 63°
2026-04-17 00:55 33.75146 -86.60084 2990 ft 273 kts 93°
2026-04-17 00:55 33.74690 -86.57988 2998 ft 248 kts 124°
2026-04-17 00:56 33.73532 -86.56606 2997 ft 229 kts 157°
2026-04-17 00:56 33.72032 -86.56231 2999 ft 215 kts 190°
2026-04-17 00:56 33.70660 -86.56691 3018 ft 196 kts 204°
2026-04-17 00:56 33.69458 -86.57268 3010 ft 177 kts 205°
2026-04-17 00:57 33.68348 -86.57816 3012 ft 176 kts 205°
2026-04-17 00:57 33.67253 -86.58485 2996 ft 180 kts 214°
2026-04-17 00:57 33.66215 -86.59379 2938 ft 183 kts 222°
2026-04-17 00:57 33.65337 -86.60434 2681 ft 180 kts 230°
2026-04-17 00:58 33.64518 -86.61571 2496 ft 180 kts 232°
2026-04-17 00:58 33.63757 -86.62757 2311 ft 179 kts 236°
2026-04-17 00:58 33.63050 -86.64002 2123 ft 178 kts 238°
2026-04-17 00:58 33.62396 -86.65238 1996 ft 176 kts 239°
2026-04-17 00:59 33.61744 -86.66401 1819 ft 158 kts 235°
2026-04-17 00:59 33.61107 -86.67380 1715 ft 144 kts 234°
2026-04-17 00:59 33.60568 -86.68366 1481 ft 140 kts 239°
2026-04-17 00:59 33.60039 -86.69319 1378 ft 136 kts 234°
2026-04-17 01:00 33.59480 -86.70237 1269 ft 137 kts 237°
2026-04-17 01:00 33.58953 -86.71198 1149 ft 138 kts 235°
2026-04-17 01:00 33.58390 -86.72127 1010 ft 137 kts 235°
2026-04-17 01:00 33.57845 -86.73065 846 ft 136 kts 236°
2026-04-17 01:01 33.57304 -86.73994 695 ft 135 kts 236°
2026-04-17 01:01 33.56806 -86.74865 636 ft 115 kts 236°
2026-04-17 01:01 33.56459 -86.75453 634 ft 46 kts 236°
2026-04-17 01:01 33.56406 -86.75546 629 ft 6 kts 233°
2026-04-17 01:02 33.56353 -86.75575 632 ft 10 kts 184°
2026-04-17 01:02 33.56315 -86.75511 631 ft 11 kts 74°
2026-04-17 01:02 33.56331 -86.75477 630 ft 0 kts 56°
2026-04-17 01:04 33.56331 -86.75476 630 ft 1 kts 56°
2026-04-17 01:04 33.56352 -86.75439 632 ft 6 kts 57°
2026-04-17 01:04 33.56376 -86.75383 630 ft 8 kts 86°
2026-04-17 01:05 33.56343 -86.75336 626 ft 7 kts 158°
2026-04-17 01:05 33.56301 -86.75337 631 ft 5 kts 179°
2026-04-17 01:05 33.56273 -86.75326 630 ft 4 kts 153°
2026-04-17 01:05 33.56253 -86.75312 626 ft 3 kts 148°
2026-04-17 01:06 33.56250 -86.75310 635 ft 0 kts 148°